SCP
0 0 0 0 0 0 0 0 0 0 0 0 0 0 0 0 0 0 0 0 0 0 0 0 0 0 0 0 0 0 0 0 0 0 0 0 0 0 0 0 0 0 0 0 0 0 0
0 0 0 0 0 0 0 0 0 0 0 0 0 0 0 0 0 0 0 0 0 0 0 0 0 0 0 0 0 0 0 0 0 0 0 0 0 0 0 0 0 0 0 0 0 0 0
0 0 0 0 0 0 0 0 0 0 0 0 0 0 0 0 0 0 0 0 0 0 0 0 0 0 0 0 0 0 0 0 0 0 0 0 0 0 0 0 0 0 0 0 0 0 0
0 0 0 0 0 0 0 0 0 0 0 0 0 0 0 0 0 0 0 0 0 0 0 0 0 0 0 0 0 0 0 0 0 0 0 0 0 0 0 0 0 0 0 0 0 0 0
0 0 0 0 0 0 0 0 0 0 0 0 0 0 0 0 0 0 0 0 0 0 0 0 0 0 0 0 0 0 0 0 0 0 0 0 0 0 0 0 0 0 0 0 0 0 0
0 0 0 0 0 0 0 0 0 0 0 0 0 0 0 0 0 0 0 0 0 0 0 0 0 0 0 0 0 0 0 0 0 0 0 0 0 0 0 0 0 0 0 0 0 0 0
0 0 0 0 0 0 0 0 0 0 0 0 0 0 0 0 0 0 0 0 0 0 0 0 0 0 0 0 0 0 0 0 0 0 0 0 0 0 0 0 0 0 0 0 0 0 0
0 0 0 0 0 0 0 0 0 0 0 0 0 0 0 0 0 0 0 0 0 0 0 0 0 0 0 0 0 0 0 0 0 0 0 0 0 0 0 0 0 0 0 0 0 0 0
0 0 0 0 0 0 0 0 0 0 0 0 0 0 0 0 0 0 0 0 0 0 0 0 0 0 0 0 0 0 0 0 0 0 0 0 0 0 0 0 0 0 0 0 0 0 0
0 0 0 0 0 0 0 0 0 0 0 0 0 0 0 0 0 0 0 0 0 0 0 0 0 0 0 0 0 0 0 0 0 0 0 0 0 0 0 0 0 0 0 0 0 0 0
0 0 0 0 0 0 0 0 0 0 0 0 0 0 0 0 0 0 0 0 0 0 0 0 0 0 0 0 0 0 0 0 0 0 0 0 0 0 0 0 0 0 0 0 0 0 0
0 0 0 0 0 0 0 0 0 0 0 0 0 0 0 0 0 0 0 0 0 0 0 0 0 0 0 0 0 0 0 0 0 0 0 0 0 0 0 0 0 0 0 0 0 0 0
0 0 0 0 0 0 0 0 0 0 0 0 0 0 0 0 0 0 0 0 0 0 0 0 0 0 0 0 0 0 0 0 0 0 0 0 0 0 0 0 0 0 0 0 0 0 0
0 0 0 0 0 0 0 0 0 0 0 0 0 0 0 0 0 0 0 0 0 0 0 0 0 0 0 0 0 0 0 0 0 0 0 0 0 0 0 0 0 0 0 0 0 0 0
0 0 0 0 0 0 0 0 0 0 0 0 0 0 0 0 0 0 0 0 0 0 0 0 0 0 0 0 0 0 0 0 0 0 0 0 0 0 0 0 0 0 0 0 0 0 0
0 0 0 0 0 0 0 0 0 0 0 0 0 0 0 0 0 0 0 0 0 0 0 0 0 0 0 0 0 0 0 0 0 0 0 0 0 0 0 0 0 0 0 0 0 0 0
0 0 0 0 0 0 0 0 0 0 0 0 0 0 0 0 0 0 0 0 0 0 0 0 0 0 0 0 0 0 0 0 0 0 0 0 0 0 0 0 0 0 0 0 0 0 0
0 0 0 0 0 0 0 0 0 0 0 0 0 0 0 0 0 0 0 0 0 0 0 0 0 0 0 0 0 0 0 0 0 0 0 0 0 0 0 0 0 0 0 0 0 0 0
0 0 0 0 0 0 0 0 0 0 0 0 0 0 0 0 0 0 0 0 0 0 0 0 0 0 0 0 0 0 0 0 0 0 0 0 0 0 0 0 0 0 0 0 0 0 0
0 0 0 0 0 0 0 0 0 0 0 0 0 0 0 0 0 0 0 0 0 0 0 0 0 0 0 0 0 0 0 0 0 0 0 0 0 0 0 0 0 0 0 0 0 0 0
0 0 0 0 0 0 0 0 0 0 0 0 0 0 0 0 0 0 0 0 0 0 0 0 0 0 0 0 0 0 0 0 0 0 0 0 0 0 0 0 0 0 0 0 0 0 0
0 0 0 0 0 0 0 0 0 0 0 0 0 0 0 0 0 0 0 0 0 0 0 0 0 0 0 0 0 0 0 0 0 0 0 0 0 0 0 0 0 0 0 0 0 0 0
0 0 0 0 0 0 0 0 0 0 0 0 0 0 0 0 0 0 0 0 0 0 0 0 0 0 0 0 0 0 0 0 0 0 0 0 0 0 0 0 0 0 0 0 0 0 0
0 0 0 0 0 0 0 0 0 0 0 0 0 0 0 0 0 0 0 0 0 0 0 0 0 0 0 0 0 0 0 0 0 0 0 0 0 0 0 0 0 0 0 0 0 0 0
0 0 0 0 0 0 0 0 0 0 0 0 0 0 0 0 0 0 0 0 0 0 0 0 0 0 0 0 0 0 0 0 0 0 0 0 0 0 0 0 0 0 0 0 0 0 0
0 0 0 0 0 0 0 0 0 0 0 0 0 0 0 0 0 0 0 0 0 0 0 0 0 0 0 0 0 0 0 0 0 0 0 0 0 0 0 0 0 0 0 0 0 0 0
0 0 0 0 0 0 0 0 0 0 0 0 0 0 0 0 0 0 0 0 0 0 0 0 0 0 0 0 0 0 0 0 0 0 0 0 0 0 0 0 0 0 0 0 0 0 0
0 0 0 0 0 0 0 0 0 0 0 0 0 0 0 0 0 0 0 0 0 0 0 0 0 0 0 0 0 0 0 0 0 0 0 0 0 0 0 0 0 0 0 0 0 0 0
0 -0 0 0 0 0 0 0 0 0 0 0 0 0 0 0 0 0 0 0 0 0 0 0 0 0 0 0 0 0 0 0 0 0 0 0 0 0 0 0 0 0 0 0 0 0 0
Wind_Speed_500mb
57 57 55 52 48 47 31 32 25 19 18 20 20 18 14 14 13 11 11 9 8 8 10 11 8 4 5 2 2 2 2 3 8 16 21 17 15 12 11 12 14 12 5 22 39 39 33
58 56 57 53 51 53 43 34 32 24 21 22 23 21 19 15 16 14 13 10 9 10 11 12 9 8 4 3 4 2 3 3 9 14 19 19 13 23 24 13 13 22 36 22 29 28 23
66 62 61 57 55 53 57 42 35 31 25 22 27 26 22 18 18 17 16 14 13 13 12 10 10 8 5 6 3 1 4 5 11 15 20 20 32 8 19 16 25 20 14 14 8 8 8
69 70 69 64 61 56 57 55 44 35 31 26 28 29 26 22 20 19 17 15 15 14 13 12 11 8 4 5 7 7 8 14 18 20 24 26 21 27 13 43 11 11 10 7 6 10 18
71 68 71 70 67 62 59 59 51 43 35 33 30 33 31 26 23 20 20 16 15 15 13 12 11 8 3 9 12 12 14 21 23 25 29 28 18 17 20 12 10 6 8 7 3 19 12
71 85 73 73 69 69 67 63 59 50 42 39 35 36 35 30 26 24 21 19 16 14 14 11 8 5 11 12 15 15 20 24 14 27 22 9 11 8 6 6 11 13 8 6 11 13 9
54 58 89 83 80 73 71 70 67 57 50 44 41 38 39 35 32 30 28 21 13 7 19 7 12 6 15 16 20 20 23 18 22 6 5 5 8 15 26 12 7 14 10 10 2 5 10
54 56 64 89 88 80 80 74 71 66 57 49 45 39 42 39 36 34 35 21 15 6 6 16 10 12 14 21 8 20 26 14 11 7 8 9 6 6 13 7 3 10 9 5 2 4 5
52 53 56 62 88 92 84 81 78 73 65 56 49 42 43 44 41 39 41 32 17 10 3 8 17 13 12 20 9 22 23 16 8 9 4 8 1 2 7 8 7 3 11 9 3 5 4
57 53 53 55 56 87 83 84 79 81 72 64 55 45 43 49 37 44 45 25 18 14 8 9 11 13 22 19 4 21 23 9 4 11 10 6 4 3 5 6 5 6 6 11 13 8 6
52 56 48 44 55 69 94 95 81 87 80 71 63 52 44 47 25 50 40 32 23 10 1 4 10 15 22 15 26 11 17 7 11 7 10 7 6 4 5 6 1 5 7 10 7 8 5
21 39 54 45 50 59 75 95 96 92 85 77 69 58 47 49 44 34 37 52 15 11 17 6 10 10 10 7 7 15 11 9 15 11 11 6 6 5 3 5 4 13 12 16 11 5 4
20 19 29 54 48 40 59 71 79 71 90 84 77 67 55 48 48 39 46 48 9 11 5 11 10 14 3 7 4 6 13 12 14 11 8 4 1 1 7 10 10 8 11 6 7 6 11
20 23 21 24 52 47 40 56 83 91 88 88 85 73 63 46 46 53 67 8 11 10 14 5 10 15 14 12 5 8 11 12 10 7 7 14 7 15 7 3 12 9 8 10 14 7 7
31 24 26 24 22 38 46 32 56 86 94 86 89 83 75 65 59 63 50 13 15 16 19 22 9 11 5 6 11 8 13 12 18 20 14 11 4 3 7 5 3 10 7 6 13 3 7
31 31 30 30 26 19 39 49 31 79 99 96 90 81 80 80 73 64 6 33 10 7 16 8 17 10 20 17 14 17 19 12 13 26 8 16 9 2 4 10 1 5 8 6 6 2 8
44 38 38 33 30 28 21 37 50 26 87 108 92 51 51 83 82 53 17 18 12 14 14 15 18 12 10 18 17 14 18 7 14 14 12 10 8 4 7 15 17 5 5 5 5 8 10
51 46 44 43 37 30 26 23 37 23 36 121 62 8 72 96 18 12 27 16 32 17 39 12 9 8 19 22 16 14 26 7 25 35 19 9 10 8 12 4 8 7 14 13 9 11 4
60 55 51 51 45 41 32 29 24 60 30 86 37 22 82 108 18 21 11 13 15 16 15 16 17 7 7 18 8 13 14 5 14 14 22 18 3 6 11 7 2 12 13 7 9 7 13
68 65 61 57 54 50 42 35 31 29 44 68 22 7 19 54 41 41 42 22 34 30 13 16 12 11 10 6 1 13 12 4 4 7 6 21 6 14 20 10 12 14 16 30 14 7 11
77 77 73 71 64 61 51 47 35 31 40 38 22 12 23 16 37 31 38 32 39 32 24 44 11 18 19 10 6 10 5 5 10 6 6 9 12 8 8 4 6 8 15 39 38 39 19
88 88 83 80 74 70 67 56 48 35 30 38 20 11 20 2 41 27 33 39 60 52 34 19 23 31 22 30 23 21 18 9 12 4 8 2 4 6 8 2 6 10 14 25 32 12 28
91 94 95 92 85 80 73 66 57 48 40 25 34 19 15 16 21 22 39 67 72 57 40 73 61 19 22 33 18 33 27 40 32 26 20 14 12 7 11 7 8 17 28 26 15 13 21
92 97 97 99 96 89 80 74 65 63 55 48 23 23 11 4 20 38 41 44 50 46 56 43 44 34 26 37 52 42 40 32 19 8 15 15 14 4 6 5 18 7 11 40 48 26 39
90 95 98 100 100 100 94 88 76 72 68 59 57 28 23 5 17 23 42 34 43 46 31 29 39 49 52 39 8 7 2 5 6 6 3 2 11 7 7 11 22 8 9 19 18 32 53
78 90 96 100 105 102 98 92 90 81 82 72 71 63 37 5 9 21 15 41 26 24 20 12 24 40 63 7 11 29 26 25 18 1 7 3 8 15 7 11 29 6 30 35 18 40 29
64 89 92 95 101 102 98 94 88 85 90 88 65 69 44 18 34 19 8 9 20 13 6 14 29 24 56 21 21 18 23 16 18 30 15 5 2 31 25 25 21 13 27 45 17 13 37
65 73 90 88 94 97 97 95 90 87 94 97 76 73 69 30 40 45 59 26 6 29 14 20 24 10 14 25 22 14 14 19 7 10 25 28 27 19 5 11 49 32 23 43 28 17 24
74 72 79 87 88 89 89 89 90 91 98 101 60 79 69 45 17 53 46 53 63 59 23 50 22 30 24 17 12 13 9 15 31 28 5 23 22 25 31 23 5 52 41 72 34 27 32
Wind_Direction_500mb
235 233 236 240 244 256 252 252 251 255 259 246 237 236 236 254 249 227 213 208 191 182 182 189 194 200 161 155 56 30 85 159 158 164 162 155 148 120 105 96 70 77 94 64 121 121 107
234 236 235 238 240 249 253 256 254 247 248 245 236 234 234 230 244 229 211 204 193 182 181 186 187 186 174 91 349 7 41 132 166 174 167 165 157 120 91 66 63 98 87 92 105 103 121
233 235 236 236 240 242 252 253 253 250 244 239 235 229 232 231 227 226 218 195 197 182 177 183 183 183 191 185 207 125 89 116 137 159 165 150 146 166 110 94 118 88 73 54 50 97 104
236 235 237 238 239 241 245 253 249 250 250 242 234 230 226 228 226 222 210 209 189 182 181 175 175 175 176 180 171 153 115 111 122 137 145 134 134 114 94 118 80 78 65 121 250 148 169
245 243 239 242 240 241 244 249 249 249 248 247 238 228 227 223 219 217 209 203 190 179 177 178 171 175 176 162 162 156 141 126 125 134 129 132 139 93 119 93 57 9 172 175 254 205 157
240 249 253 245 246 240 241 244 247 246 245 245 239 229 223 222 215 206 204 185 184 179 170 178 195 182 194 179 163 156 150 139 124 133 121 99 83 80 54 85 198 185 186 175 199 217 176
244 245 247 253 255 250 245 239 243 242 241 242 241 230 222 218 211 200 187 166 159 185 194 221 174 163 146 152 154 162 158 145 141 122 117 81 102 188 192 173 135 140 138 166 209 193 168
246 246 247 243 252 252 252 250 238 237 238 238 239 232 218 215 213 202 189 186 182 170 165 200 195 185 159 161 131 164 161 152 156 168 124 42 217 194 167 206 190 130 124 167 307 191 173
248 249 244 243 242 251 253 255 246 233 231 232 234 232 219 213 208 205 200 196 177 154 68 214 203 193 179 182 158 174 171 150 133 132 169 158 11 117 121 165 158 110 171 174 189 118 302
245 249 249 241 239 239 249 254 255 239 224 227 229 230 224 213 205 206 203 185 186 164 55 219 215 199 173 162 174 172 173 157 98 150 129 105 2 140 117 141 111 210 184 139 128 108 220
250 244 246 247 245 236 235 243 251 246 223 219 223 223 224 211 208 198 198 155 149 131 348 161 164 167 162 171 136 168 162 121 131 119 123 209 135 136 131 153 206 199 105 114 113 96 50
280 253 243 240 232 232 230 232 244 247 228 216 219 217 216 202 206 196 176 182 144 52 241 167 129 171 131 152 145 126 143 116 129 88 36 96 83 51 122 77 4 145 72 43 47 55 353
307 298 260 241 236 225 227 218 235 242 236 215 213 213 212 212 197 179 167 154 62 174 296 201 180 161 123 150 142 164 158 165 160 124 186 55 107 202 156 79 9 75 85 10 350 360 224
292 298 300 271 247 239 224 212 222 236 241 228 211 207 203 209 196 170 162 79 191 208 188 156 118 111 171 155 212 172 127 179 252 94 129 156 281 168 175 208 181 170 162 162 210 200 254
288 295 293 296 283 250 234 237 216 220 238 231 211 196 194 188 184 173 161 203 211 196 160 140 74 107 226 216 152 153 204 206 199 187 155 140 162 117 78 69 110 188 192 157 99 49 49
284 282 290 291 293 289 242 233 211 204 214 222 191 185 194 182 176 176 133 223 214 168 120 126 159 161 175 187 156 177 172 206 211 188 164 201 100 9 141 115 359 182 158 93 1 205 264
269 274 284 292 289 285 283 249 231 231 204 217 187 173 199 176 166 156 208 218 210 212 168 151 185 146 185 174 184 199 193 248 198 173 125 136 103 285 146 203 166 152 209 66 140 168 189
260 265 267 274 280 284 283 282 248 185 176 199 175 169 177 174 142 183 209 196 194 188 200 218 124 114 171 167 167 207 204 251 172 143 171 172 112 161 209 197 150 206 202 161 141 233 263
258 259 261 262 268 274 279 274 268 217 208 187 173 121 167 181 179 197 161 224 237 170 178 180 195 182 153 168 157 203 187 45 171 159 161 178 221 77 355 354 48 212 188 151 109 109 194
254 252 251 256 258 262 264 267 264 252 205 197 147 114 166 197 220 198 196 194 207 201 184 173 162 123 121 129 320 171 167 38 114 132 140 137 135 166 192 184 132 194 187 182 150 141 177
255 252 250 250 251 255 256 260 256 252 230 212 174 183 178 200 214 204 190 192 201 206 204 176 200 194 162 138 111 152 110 127 42 99 61 126 197 158 238 227 179 206 174 187 202 216 190
252 252 251 250 248 245 246 249 254 251 249 230 175 165 175 151 215 197 203 210 201 213 176 202 222 190 184 197 182 185 140 188 180 65 148 8 225 112 301 272 187 240 207 207 215 263 250
253 249 249 247 246 244 241 243 241 242 236 219 217 201 172 200 189 194 209 214 211 197 221 207 207 163 205 214 160 182 181 165 162 159 173 158 139 109 255 30 20 288 212 194 199 204 201
257 250 247 246 245 241 240 238 236 240 236 234 212 195 191 215 189 211 212 218 229 205 220 209 203 203 168 150 108 94 78 79 98 41 139 152 138 137 191 54 253 230 198 198 214 206 222
257 252 247 245 243 243 242 241 234 233 234 228 227 201 201 260 202 215 221 221 233 246 222 225 200 216 171 146 91 109 64 3 341 353 348 90 143 151 185 206 286 234 183 159 168 239 232
253 250 247 244 241 239 238 235 236 230 225 223 223 225 232 160 220 219 202 216 214 212 218 202 187 192 170 118 168 208 203 201 202 72 344 56 30 191 132 215 241 34 186 172 99 264 228
271 247 244 241 238 237 235 231 228 226 220 218 218 217 210 232 227 179 195 182 183 169 196 131 150 182 182 181 199 199 212 167 200 190 159 148 83 208 205 238 269 192 145 137 164 248 204
275 252 236 238 234 233 232 230 229 221 217 212 212 213 206 212 239 231 231 222 204 194 184 143 160 183 185 197 198 188 207 201 162 173 177 176 178 199 155 205 256 145 151 187 215 170 201
269 246 234 230 230 231 231 227 227 222 215 210 202 209 205 205 234 227 233 232 240 248 207 176 188 159 182 181 186 202 206 173 206 220 162 202 196 191 191 219 110 178 203 212 215 216 202
Wind_Speed_850mb
57 57 55 52 48 47 31 32 25 19 18 20 20 18 14 14 13 11 11 9 8 8 10 11 8 4 5 2 2 2 2 3 8 16 21 17 15 12 11 12 14 12 5 22 39 39 33
58 56 57 53 51 53 43 34 32 24 21 22 23 21 19 15 16 14 13 10 9 10 11 12 9 8 4 3 4 2 3 3 9 14 19 19 13 23 24 13 13 22 36 22 29 28 23
66 62 61 57 55 53 57 42 35 31 25 22 27 26 22 18 18 17 16 14 13 13 12 10 10 8 5 6 3 1 4 5 11 15 20 20 32 8 19 16 25 20 14 14 8 8 8
69 70 69 64 61 56 57 55 44 35 31 26 28 29 26 22 20 19 17 15 15 14 13 12 11 8 4 5 7 7 8 14 18 20 24 26 21 27 13 43 11 11 10 7 6 10 18
71 68 71 70 67 62 59 59 51 43 35 33 30 33 31 26 23 20 20 16 15 15 13 12 11 8 3 9 12 12 14 21 23 25 29 28 18 17 20 12 10 6 8 7 3 19 12
71 85 73 73 69 69 67 63 59 50 42 39 35 36 35 30 26 24 21 19 16 14 14 11 8 5 11 12 15 15 20 24 14 27 22 9 11 8 6 6 11 13 8 6 11 13 9
54 58 89 83 80 73 71 70 67 57 50 44 41 38 39 35 32 30 28 21 13 7 19 7 12 6 15 16 20 20 23 18 22 6 5 5 8 15 26 12 7 14 10 10 2 5 10
54 56 64 89 88 80 80 74 71 66 57 49 45 39 42 39 36 34 35 21 15 6 6 16 10 12 14 21 8 20 26 14 11 7 8 9 6 6 13 7 3 10 9 5 2 4 5
52 53 56 62 88 92 84 81 78 73 65 56 49 42 43 44 41 39 41 32 17 10 3 8 17 13 12 20 9 22 23 16 8 9 4 8 1 2 7 8 7 3 11 9 3 5 4
57 53 53 55 56 87 83 84 79 81 72 64 55 45 43 49 37 44 45 25 18 14 8 9 11 13 22 19 4 21 23 9 4 11 10 6 4 3 5 6 5 6 6 11 13 8 6
52 56 48 44 55 69 94 95 81 87 80 71 63 52 44 47 25 50 40 32 23 10 1 4 10 15 22 15 26 11 17 7 11 7 10 7 6 4 5 6 1 5 7 10 7 8 5
21 39 54 45 50 59 75 95 96 92 85 77 69 58 47 49 44 34 37 52 15 11 17 6 10 10 10 7 7 15 11 9 15 11 11 6 6 5 3 5 4 13 12 16 11 5 4
20 19 29 54 48 40 59 71 79 71 90 84 77 67 55 48 48 39 46 48 9 11 5 11 10 14 3 7 4 6 13 12 14 11 8 4 1 1 7 10 10 8 11 6 7 6 11
20 23 21 24 52 47 40 56 83 91 88 88 85 73 63 46 46 53 67 8 11 10 14 5 10 15 14 12 5 8 11 12 10 7 7 14 7 15 7 3 12 9 8 10 14 7 7
31 24 26 24 22 38 46 32 56 86 94 86 89 83 75 65 59 63 50 13 15 16 19 22 9 11 5 6 11 8 13 12 18 20 14 11 4 3 7 5 3 10 7 6 13 3 7
31 31 30 30 26 19 39 49 31 79 99 96 90 81 80 80 73 64 6 33 10 7 16 8 17 10 20 17 14 17 19 12 13 26 8 16 9 2 4 10 1 5 8 6 6 2 8
44 38 38 33 30 28 21 37 50 26 87 108 92 51 51 83 82 53 17 18 12 14 14 15 18 12 10 18 17 14 18 7 14 14 12 10 8 4 7 15 17 5 5 5 5 8 10
51 46 44 43 37 30 26 23 37 23 36 121 62 8 72 96 18 12 27 16 32 17 39 12 9 8 19 22 16 14 26 7 25 35 19 9 10 8 12 4 8 7 14 13 9 11 4
60 55 51 51 45 41 32 29 24 60 30 86 37 22 82 108 18 21 11 13 15 16 15 16 17 7 7 18 8 13 14 5 14 14 22 18 3 6 11 7 2 12 13 7 9 7 13
68 65 61 57 54 50 42 35 31 29 44 68 22 7 19 54 41 41 42 22 34 30 13 16 12 11 10 6 1 13 12 4 4 7 6 21 6 14 20 10 12 14 16 30 14 7 11
77 77 73 71 64 61 51 47 35 31 40 38 22 12 23 16 37 31 38 32 39 32 24 44 11 18 19 10 6 10 5 5 10 6 6 9 12 8 8 4 6 8 15 39 38 39 19
88 88 83 80 74 70 67 56 48 35 30 38 20 11 20 2 41 27 33 39 60 52 34 19 23 31 22 30 23 21 18 9 12 4 8 2 4 6 8 2 6 10 14 25 32 12 28
91 94 95 92 85 80 73 66 57 48 40 25 34 19 15 16 21 22 39 67 72 57 40 73 61 19 22 33 18 33 27 40 32 26 20 14 12 7 11 7 8 17 28 26 15 13 21
92 97 97 99 96 89 80 74 65 63 55 48 23 23 11 4 20 38 41 44 50 46 56 43 44 34 26 37 52 42 40 32 19 8 15 15 14 4 6 5 18 7 11 40 48 26 39
90 95 98 100 100 100 94 88 76 72 68 59 57 28 23 5 17 23 42 34 43 46 31 29 39 49 52 39 8 7 2 5 6 6 3 2 11 7 7 11 22 8 9 19 18 32 53
78 90 96 100 105 102 98 92 90 81 82 72 71 63 37 5 9 21 15 41 26 24 20 12 24 40 63 7 11 29 26 25 18 1 7 3 8 15 7 11 29 6 30 35 18 40 29
64 89 92 95 101 102 98 94 88 85 90 88 65 69 44 18 34 19 8 9 20 13 6 14 29 24 56 21 21 18 23 16 18 30 15 5 2 31 25 25 21 13 27 45 17 13 37
65 73 90 88 94 97 97 95 90 87 94 97 76 73 69 30 40 45 59 26 6 29 14 20 24 10 14 25 22 14 14 19 7 10 25 28 27 19 5 11 49 32 23 43 28 17 24
74 72 79 87 88 89 89 89 90 91 98 101 60 79 69 45 17 53 46 53 63 59 23 50 22 30 24 17 12 13 9 15 31 28 5 23 22 25 31 23 5 52 41 72 34 27 32
Wind_Direction_850mb
235 233 236 240 244 256 252 252 251 255 259 246 237 236 236 254 249 227 213 208 191 182 182 189 194 200 161 155 56 30 85 159 158 164 162 155 148 120 105 96 70 77 94 64 121 121 107
234 236 235 238 240 249 253 256 254 247 248 245 236 234 234 230 244 229 211 204 193 182 181 186 187 186 174 91 349 7 41 132 166 174 167 165 157 120 91 66 63 98 87 92 105 103 121
233 235 236 236 240 242 252 253 253 250 244 239 235 229 232 231 227 226 218 195 197 182 177 183 183 183 191 185 207 125 89 116 137 159 165 150 146 166 110 94 118 88 73 54 50 97 104
236 235 237 238 239 241 245 253 249 250 250 242 234 230 226 228 226 222 210 209 189 182 181 175 175 175 176 180 171 153 115 111 122 137 145 134 134 114 94 118 80 78 65 121 250 148 169
245 243 239 242 240 241 244 249 249 249 248 247 238 228 227 223 219 217 209 203 190 179 177 178 171 175 176 162 162 156 141 126 125 134 129 132 139 93 119 93 57 9 172 175 254 205 157
240 249 253 245 246 240 241 244 247 246 245 245 239 229 223 222 215 206 204 185 184 179 170 178 195 182 194 179 163 156 150 139 124 133 121 99 83 80 54 85 198 185 186 175 199 217 176
244 245 247 253 255 250 245 239 243 242 241 242 241 230 222 218 211 200 187 166 159 185 194 221 174 163 146 152 154 162 158 145 141 122 117 81 102 188 192 173 135 140 138 166 209 193 168
246 246 247 243 252 252 252 250 238 237 238 238 239 232 218 215 213 202 189 186 182 170 165 200 195 185 159 161 131 164 161 152 156 168 124 42 217 194 167 206 190 130 124 167 307 191 173
248 249 244 243 242 251 253 255 246 233 231 232 234 232 219 213 208 205 200 196 177 154 68 214 203 193 179 182 158 174 171 150 133 132 169 158 11 117 121 165 158 110 171 174 189 118 302
245 249 249 241 239 239 249 254 255 239 224 227 229 230 224 213 205 206 203 185 186 164 55 219 215 199 173 162 174 172 173 157 98 150 129 105 2 140 117 141 111 210 184 139 128 108 220
250 244 246 247 245 236 235 243 251 246 223 219 223 223 224 211 208 198 198 155 149 131 348 161 164 167 162 171 136 168 162 121 131 119 123 209 135 136 131 153 206 199 105 114 113 96 50
280 253 243 240 232 232 230 232 244 247 228 216 219 217 216 202 206 196 176 182 144 52 241 167 129 171 131 152 145 126 143 116 129 88 36 96 83 51 122 77 4 145 72 43 47 55 353
307 298 260 241 236 225 227 218 235 242 236 215 213 213 212 212 197 179 167 154 62 174 296 201 180 161 123 150 142 164 158 165 160 124 186 55 107 202 156 79 9 75 85 10 350 360 224
292 298 300 271 247 239 224 212 222 236 241 228 211 207 203 209 196 170 162 79 191 208 188 156 118 111 171 155 212 172 127 179 252 94 129 156 281 168 175 208 181 170 162 162 210 200 254
288 295 293 296 283 250 234 237 216 220 238 231 211 196 194 188 184 173 161 203 211 196 160 140 74 107 226 216 152 153 204 206 199 187 155 140 162 117 78 69 110 188 192 157 99 49 49
284 282 290 291 293 289 242 233 211 204 214 222 191 185 194 182 176 176 133 223 214 168 120 126 159 161 175 187 156 177 172 206 211 188 164 201 100 9 141 115 359 182 158 93 1 205 264
269 274 284 292 289 285 283 249 231 231 204 217 187 173 199 176 166 156 208 218 210 212 168 151 185 146 185 174 184 199 193 248 198 173 125 136 103 285 146 203 166 152 209 66 140 168 189
260 265 267 274 280 284 283 282 248 185 176 199 175 169 177 174 142 183 209 196 194 188 200 218 124 114 171 167 167 207 204 251 172 143 171 172 112 161 209 197 150 206 202 161 141 233 263
258 259 261 262 268 274 279 274 268 217 208 187 173 121 167 181 179 197 161 224 237 170 178 180 195 182 153 168 157 203 187 45 171 159 161 178 221 77 355 354 48 212 188 151 109 109 194
254 252 251 256 258 262 264 267 264 252 205 197 147 114 166 197 220 198 196 194 207 201 184 173 162 123 121 129 320 171 167 38 114 132 140 137 135 166 192 184 132 194 187 182 150 141 177
255 252 250 250 251 255 256 260 256 252 230 212 174 183 178 200 214 204 190 192 201 206 204 176 200 194 162 138 111 152 110 127 42 99 61 126 197 158 238 227 179 206 174 187 202 216 190
252 252 251 250 248 245 246 249 254 251 249 230 175 165 175 151 215 197 203 210 201 213 176 202 222 190 184 197 182 185 140 188 180 65 148 8 225 112 301 272 187 240 207 207 215 263 250
253 249 249 247 246 244 241 243 241 242 236 219 217 201 172 200 189 194 209 214 211 197 221 207 207 163 205 214 160 182 181 165 162 159 173 158 139 109 255 30 20 288 212 194 199 204 201
257 250 247 246 245 241 240 238 236 240 236 234 212 195 191 215 189 211 212 218 229 205 220 209 203 203 168 150 108 94 78 79 98 41 139 152 138 137 191 54 253 230 198 198 214 206 222
257 252 247 245 243 243 242 241 234 233 234 228 227 201 201 260 202 215 221 221 233 246 222 225 200 216 171 146 91 109 64 3 341 353 348 90 143 151 185 206 286 234 183 159 168 239 232
253 250 247 244 241 239 238 235 236 230 225 223 223 225 232 160 220 219 202 216 214 212 218 202 187 192 170 118 168 208 203 201 202 72 344 56 30 191 132 215 241 34 186 172 99 264 228
271 247 244 241 238 237 235 231 228 226 220 218 218 217 210 232 227 179 195 182 183 169 196 131 150 182 182 181 199 199 212 167 200 190 159 148 83 208 205 238 269 192 145 137 164 248 204
275 252 236 238 234 233 232 230 229 221 217 212 212 213 206 212 239 231 231 222 204 194 184 143 160 183 185 197 198 188 207 201 162 173 177 176 178 199 155 205 256 145 151 187 215 170 201
269 246 234 230 230 231 231 227 227 222 215 210 202 209 205 205 234 227 233 232 240 248 207 176 188 159 182 181 186 202 206 173 206 220 162 202 196 191 191 219 110 178 203 212 215 216 202